GFSSGP_con_mlcape_102.txt.gz
CAPE
0 0 0 0 0 0 0 0 0 0 0 0 0 0 0 0 0 0 263 607 992 1093 1411 1333 1285 1318 1299 1227 1111 1104 1046 455 1016 903 958 921 862 802 669 653 845 1033 982 822 784 822 776 745 516
0 0 0 0 0 0 0 0 0 0 0 0 0 0 0 0 0 58 183 794 1227 1201 1455 1465 1290 1321 1424 1448 1299 1409 1190 1095 1175 906 980 910 823 726 579 688 846 861 788 447 580 759 749 553 360
0 0 0 0 0 0 0 0 0 0 0 0 0 0 0 0 34 1 384 728 1457 1243 1371 1541 1410 1375 1468 1488 1422 1396 1294 1378 1219 1027 1010 1061 880 781 831 917 819 526 308 280 635 667 533 334 225
0 0 0 0 0 0 0 0 0 0 0 0 0 0 0 0 2 472 279 424 1191 1288 1382 1502 1557 1492 1551 1606 1582 1647 1692 1557 1447 1128 974 1117 1053 932 844 834 688 497 560 633 586 590 268 118 78
0 0 0 0 0 0 0 0 0 0 0 0 0 0 0 0 141 205 185 227 550 1308 1479 1458 1601 1649 1706 1724 1748 1748 1768 1642 1472 1049 608 476 453 594 733 700 622 491 359 278 393 218 47 10 1
0 0 0 0 0 0 0 0 0 0 0 0 0 0 0 4 22 97 212 316 537 798 1245 1397 1458 1647 1859 1959 1885 1800 1614 1418 1198 747 219 12 16 29 251 581 501 321 187 129 192 25 1 0 0
0 0 0 0 0 0 0 0 0 0 0 0 0 0 0 0 21 199 309 435 499 729 862 1137 1295 1383 1509 1769 1983 1762 1514 1223 904 582 148 7 27 13 192 299 354 254 165 107 64 0 0 0 0
0 0 0 0 0 0 0 0 0 0 0 0 0 0 0 0 164 355 410 405 319 419 612 848 1067 1156 1116 1128 1357 1436 1068 852 402 286 81 26 0 0 132 208 384 257 103 74 9 0 0 0 0
0 0 0 0 0 0 0 0 0 0 0 0 0 0 0 20 289 361 317 324 351 409 440 660 757 757 699 725 805 680 709 492 338 153 14 0 0 1 71 134 313 233 64 5 0 0 0 0 0
0 0 0 0 0 0 0 0 0 0 0 0 0 0 0 140 223 151 78 155 398 507 502 435 317 377 618 529 335 223 199 287 192 62 42 3 1 0 17 96 225 182 43 0 0 0 0 0 0
0 0 0 0 0 0 0 0 0 0 0 0 0 0 16 159 121 82 87 221 324 440 475 276 203 369 574 442 72 18 47 54 24 8 2 1 0 7 0 60 112 79 23 0 0 0 0 0 0
0 0 0 0 0 0 0 0 0 0 0 0 0 0 0 0 22 11 79 192 490 539 440 125 100 220 381 134 27 0 0 0 0 0 0 0 0 0 33 61 4 11 0 0 0 0 0 0 0
0 0 0 0 0 0 0 0 0 0 0 0 0 0 0 0 0 0 28 119 423 524 355 25 40 134 105 26 3 0 0 0 2 0 2 0 16 1 74 1 1 0 0 0 0 0 0 0 0
0 0 0 0 0 0 0 0 0 0 0 0 0 0 0 0 0 0 21 184 299 298 104 11 1 10 0 6 20 1 0 0 4 3 0 1 29 63 14 1 1 0 0 0 0 0 0 0 0
0 0 0 0 0 0 0 0 0 0 0 0 0 0 0 0 0 0 41 111 200 113 26 0 0 0 0 13 12 3 0 0 2 2 2 3 11 1 1 1 0 0 0 0 0 0 0 0 0
0 0 0 0 0 0 0 0 0 0 0 0 0 0 0 0 0 28 94 46 55 15 0 0 0 0 3 0 0 4 1 0 0 8 8 4 41 0 0 0 0 0 0 0 0 0 0 0 0
0 0 0 0 0 0 0 0 0 0 0 0 0 0 0 0 4 140 123 74 13 0 0 0 0 0 0 2 0 10 0 7 10 6 1 11 3 0 0 0 0 0 0 0 0 0 0 0 0
0 0 0 0 0 0 0 0 0 0 0 0 0 0 0 0 3 192 100 12 0 0 0 0 0 0 0 7 0 4 3 1 1 2 1 25 0 0 0 0 0 0 0 0 0 0 0 0 0
0 0 0 0 0 0 0 0 0 0 0 0 0 0 0 0 72 94 38 3 0 0 0 0 0 0 0 0 0 0 5 0 2 2 7 15 1 0 0 0 0 0 0 0 0 0 0 0 0
0 0 0 0 0 0 0 0 0 0 0 0 0 0 0 0 11 72 7 0 0 0 0 0 0 0 0 1 0 0 0 2 4 1 0 2 0 0 0 0 0 0 0 0 0 0 0 0 0
0 0 0 0 0 0 0 0 0 0 0 0 0 0 0 0 0 58 0 0 0 0 0 0 0 0 1 0 0 3 3 3 1 1 1 1 1 2 0 0 0 0 0 0 0 0 0 0 0
0 0 0 0 0 0 0 0 0 0 0 0 0 0 0 0 0 34 4 0 4 0 0 0 0 0 0 0 0 0 1 13 1 0 1 1 0 0 1 0 0 0 0 2 0 0 0 0 0
0 0 0 0 0 0 0 0 0 0 0 0 0 0 0 0 0 30 44 12 0 0 0 0 0 0 0 0 0 0 1 1 0 1 0 0 0 0 5 18 17 16 11 9 2 0 0 0 0
0 0 0 0 0 0 0 0 0 0 0 0 0 0 0 0 2 20 2 5 0 0 0 0 0 0 0 1 0 1 0 1 0 1 2 3 0 0 0 0 1 10 4 0 0 3 0 0 0
0 0 0 0 0 0 0 0 0 0 0 0 0 0 0 0 6 15 12 20 0 0 0 0 0 0 0 0 1 0 0 1 0 1 1 2 2 1 1 0 0 0 0 0 5 0 4 10 2
0 0 0 0 0 0 0 0 0 0 0 0 0 0 0 0 6 13 28 11 0 0 0 0 0 0 1 0 0 0 0 0 1 1 1 1 2 1 0 0 0 0 0 0 0 2 12 27 20
0 0 0 0 0 0 1 0 0 0 0 0 0 0 0 3 40 70 53 1 0 0 0 0 0 0 1 1 0 0 0 0 0 0 1 0 1 1 0 0 0 0 0 0 1 5 24 14 16
0 0 0 1 0 0 0 0 0 0 0 0 0 0 27 112 98 98 74 21 0 0 0 0 0 0 0 2 0 0 0 0 0 0 0 0 1 0 0 0 0 0 0 0 0 7 35 18 10
0 0 3 6 8 0 0 0 0 17 2 0 0 0 0 0 44 51 120 30 0 0 0 0 0 0 1 0 1 0 0 0 0 0 0 0 0 0 0 0 0 0 0 0 0 9 16 11 11
0 0 2 17 4 5 0 0 31 7 5 0 0 0 0 0 0 23 26 50 5 0 0 0 0 0 0 0 1 0 0 0 0 0 0 0 0 0 0 0 0 0 0 0 0 1 2 6 3

GFSSGP_con_mlcape_105.txt.gz
CAPE
0 0 0 0 0 0 0 0 0 0 0 0 0 0 0 0 0 0 0 553 795 795 1076 1128 1230 1145 982 1046 1125 1223 968 938 1140 1346 1437 1506 1419 1288 1245 1376 1343 1207 1093 1016 985 942 980 849 776
0 0 0 0 0 0 0 0 0 0 0 0 0 0 0 0 0 17 45 611 814 833 1042 1109 1243 1257 1092 1004 1132 1304 1493 1339 1262 1361 1215 1300 1310 1266 1273 1334 1262 1020 827 1086 1100 977 775 782 675
0 0 0 0 0 0 0 0 0 0 0 0 0 0 0 0 0 0 72 601 911 908 1043 1181 1230 1352 1351 1211 1228 1306 1480 1443 1309 1324 1276 1212 1188 1186 1245 1165 1157 967 676 611 974 915 738 574 438
0 0 0 0 0 0 0 0 0 0 0 0 0 0 0 0 0 0 189 665 766 976 1168 1374 1258 1334 1511 1567 1494 1372 1521 1518 1579 1556 1334 1179 1032 945 1069 1097 966 751 526 594 792 655 509 359 246
0 0 0 0 0 0 0 0 0 0 0 0 0 0 0 0 17 132 206 696 623 834 1067 1373 1317 1340 1516 1640 1623 1651 1641 1489 1385 1043 617 476 561 506 638 729 559 393 383 497 509 438 294 142 53
0 0 0 0 0 0 0 0 0 0 0 0 0 0 0 0 36 83 55 486 760 840 1162 1248 1446 1437 1528 1668 1703 1654 1692 1523 1253 652 338 238 111 95 305 400 469 450 325 293 313 242 123 21 0
0 0 0 0 0 0 0 0 0 0 0 0 0 0 0 0 30 82 102 373 813 1035 1175 1198 1361 1578 1685 1722 1671 1650 1635 1401 878 313 178 127 28 111 110 156 241 303 256 338 260 162 39 0 0
0 0 0 0 0 0 0 0 0 0 0 0 0 0 0 0 5 164 237 276 441 645 779 990 1088 1171 1412 1620 1772 1653 1576 1204 641 248 52 45 16 19 0 0 98 172 187 222 122 88 0 0 0
0 0 0 0 0 0 0 0 0 0 0 0 0 0 0 0 72 241 226 178 209 325 436 592 762 857 917 1024 1206 1515 1295 817 577 277 48 75 64 64 0 0 34 130 178 132 32 6 0 0 0
0 0 0 0 0 0 0 0 0 0 0 0 0 0 0 0 59 93 60 79 83 67 209 394 585 525 570 533 628 637 819 511 373 180 58 26 50 97 37 0 32 95 107 87 0 0 0 0 0
0 0 0 0 0 0 0 0 0 0 0 0 0 0 0 0 34 60 25 72 19 92 222 293 313 224 247 316 314 338 373 377 142 116 37 6 28 38 0 0 17 101 71 22 0 0 0 0 0
0 0 0 0 0 0 0 0 0 0 0 0 0 0 0 0 0 38 35 46 41 143 269 279 129 184 225 143 106 60 103 33 29 44 2 1 0 0 0 22 113 58 0 0 0 0 0 0 0
0 0 0 0 0 0 0 0 0 0 0 0 0 0 0 0 0 19 71 47 108 199 244 191 29 93 109 114 7 0 8 1 1 1 1 0 0 4 14 93 85 25 0 0 0 0 0 0 0
0 0 0 0 0 0 0 0 0 0 0 0 0 0 0 0 0 0 27 41 91 270 266 66 24 21 44 21 0 1 2 2 1 1 0 0 1 11 32 59 58 34 5 0 0 0 0 0 0
0 0 0 0 0 0 0 0 0 0 0 0 0 0 0 0 0 0 0 28 107 211 225 36 0 0 0 0 0 0 1 1 2 0 1 1 10 11 62 62 31 23 0 0 0 0 0 0 0
0 0 0 0 0 0 0 0 0 0 0 0 0 0 0 0 0 0 0 23 160 234 208 0 0 0 0 0 1 2 1 0 1 1 2 2 16 24 33 13 1 0 0 0 0 0 0 0 0
0 0 0 0 0 0 0 0 0 0 0 0 0 0 0 0 0 0 0 10 154 197 68 0 0 0 0 0 0 8 2 0 0 1 1 2 4 60 15 1 0 0 0 0 0 0 0 0 0
0 0 0 0 0 0 0 0 0 0 0 0 0 0 0 0 0 0 5 31 114 97 15 0 0 0 0 0 0 6 5 2 1 3 5 1 14 2 0 0 0 0 0 0 0 0 0 0 0
0 0 0 0 0 0 0 0 0 0 0 0 0 0 0 0 0 0 30 47 29 9 0 0 0 0 0 0 1 1 5 0 0 9 2 3 1 0 0 0 0 0 0 0 0 0 0 0 0
0 0 0 0 0 0 0 0 0 0 0 0 0 0 0 0 0 22 34 48 34 0 0 0 0 0 0 0 0 0 0 3 0 1 2 1 0 0 0 0 0 0 0 0 0 0 0 0 0
0 0 0 0 0 0 0 0 0 0 0 0 0 0 0 0 0 0 53 73 2 0 0 0 0 0 0 0 0 0 0 7 2 4 6 3 1 0 0 0 0 0 0 0 0 0 0 0 0
0 0 0 0 0 0 0 0 0 0 0 0 0 0 0 0 0 0 35 37 2 0 0 0 0 0 0 0 0 0 1 6 3 0 1 3 1 0 0 0 0 0 0 0 0 0 0 0 0
0 0 0 0 0 0 0 0 0 0 0 0 0 0 0 0 0 0 1 40 0 0 0 0 0 0 0 0 0 0 4 3 6 0 1 1 3 1 0 0 0 0 0 0 0 0 0 0 0
0 0 0 0 0 0 0 0 0 0 0 0 0 0 0 0 0 0 0 0 0 0 0 0 0 0 0 0 0 0 1 0 11 1 1 1 1 3 0 0 0 2 3 3 0 2 0 1 0
0 0 0 0 0 0 0 0 0 0 0 0 0 0 0 0 0 0 0 0 0 0 0 0 0 0 0 0 0 0 0 0 2 0 1 0 1 1 2 0 0 8 24 31 18 6 5 3 0
0 0 0 0 0 0 0 0 0 0 0 0 0 0 0 0 0 0 0 7 0 0 0 0 0 0 0 0 0 0 0 0 0 0 1 1 1 2 1 1 0 0 2 19 23 24 14 0 1
0 0 0 0 0 0 0 0 0 0 1 4 0 0 0 47 18 0 0 0 0 0 0 0 0 0 0 0 0 0 0 0 0 0 0 1 1 1 2 1 0 1 0 1 0 2 0 1 12
0 0 0 0 0 0 0 0 0 0 0 15 3 0 0 0 0 0 0 0 0 0 0 0 0 0 0 0 0 0 0 0 0 0 1 1 1 1 1 1 1 1 2 1 0 0 2 13 5
0 0 0 0 0 0 0 0 0 0 7 4 6 0 0 0 0 0 0 0 0 1 0 0 0 0 0 0 0 0 0 0 0 0 0 1 1 1 2 2 1 1 0 0 0 1 1 3 1
0 0 0 0 0 0 0 0 10 21 3 0 0 0 0 0 0 0 0 0 0 1 1 0 0 0 0 0 0 0 0 0 0 0 0 0 1 1 1 1 1 0 0 0 0 0 0 1 8

GFSSGP_con_mlcape_108.txt.gz
CAPE
0 0 0 0 0 0 0 0 0 0 0 0 0 0 0 0 0 0 0 96 35 121 510 957 1186 1240 1214 996 828 1056 1432 1746 1714 1621 1536 1558 1597 1488 1519 1462 1454 1408 1310 1287 1214 1075 1213 1089 770
0 0 0 0 0 0 0 0 0 0 0 0 0 0 0 0 0 0 0 158 319 402 551 869 1179 1256 1263 1151 928 1062 1456 1770 1924 1501 1607 1587 1372 1541 1514 1394 1378 1310 1245 1180 1191 1237 1137 975 725
0 0 0 0 0 0 0 0 0 0 0 0 0 0 0 0 0 0 0 154 653 638 657 802 1148 1315 1245 1331 1241 1055 1637 1935 1922 1882 1805 1820 1666 1554 1456 1276 1153 1052 1219 1174 1221 1053 1005 782 607
0 0 0 0 0 0 0 0 0 0 0 0 0 0 0 0 0 0 0 337 553 604 611 805 1094 1333 1285 1372 1463 1426 1378 1632 1761 1505 1600 1620 1594 1380 1053 1086 931 788 777 1082 961 1013 751 584 407
0 0 0 0 0 0 0 0 0 0 0 0 0 0 0 0 0 0 54 516 264 658 849 944 1083 1291 1418 1401 1463 1560 1588 1443 1519 1220 955 750 732 720 862 912 776 700 553 692 762 696 592 369 198
0 0 0 0 0 0 0 0 0 0 0 0 0 0 0 0 0 0 343 608 637 726 966 1105 1217 1247 1438 1567 1507 1387 1592 1386 1044 837 579 382 348 260 339 511 554 298 460 461 622 493 368 192 97
0 0 0 0 0 0 0 0 0 0 0 0 0 0 0 0 0 35 323 776 818 891 863 1071 1315 1273 1373 1513 1598 1352 1257 1028 882 623 450 270 94 58 98 219 292 262 336 343 399 281 197 124 63
0 0 0 0 0 0 0 0 0 0 0 0 0 0 0 0 0 73 213 511 799 809 978 991 1213 1344 1343 1431 1571 1474 1271 828 644 359 174 49 56 40 17 13 89 183 202 239 281 98 65 44 4
0 0 0 0 0 0 0 0 0 0 0 0 0 0 0 0 1 88 133 205 361 571 847 921 1049 1178 1191 1261 1483 1544 1069 791 458 252 166 57 62 79 35 26 109 175 218 226 181 12 4 0 0
0 0 0 0 0 0 0 0 0 0 0 0 0 0 0 0 0 0 16 15 105 187 344 591 735 770 823 968 1117 1259 1059 656 337 64 43 62 55 17 10 14 55 150 180 146 103 0 0 0 0
0 0 0 0 0 0 0 0 0 0 0 0 0 0 0 0 0 0 0 21 45 97 144 246 435 487 494 537 578 574 764 532 246 28 27 20 36 43 24 50 141 133 164 88 7 0 0 0 0
0 0 0 0 0 0 0 0 0 0 0 0 0 0 0 0 0 0 0 0 27 58 55 173 329 386 314 154 141 181 386 322 231 41 1 2 40 35 8 7 97 126 91 43 0 0 0 0 0
0 0 0 0 0 0 0 0 0 0 0 0 0 0 0 0 0 0 0 0 37 77 65 106 160 193 79 73 60 57 24 70 44 41 2 2 3 17 0 18 111 85 29 35 0 0 0 0 0
0 0 0 0 0 0 0 0 0 0 0 0 0 0 0 0 0 0 0 0 4 78 83 138 137 79 56 59 5 1 10 25 39 12 2 0 1 7 1 16 66 32 21 0 0 0 0 0 0
0 0 0 0 0 0 0 0 0 0 0 0 0 0 0 0 0 0 0 0 0 20 40 116 156 15 22 1 1 0 0 1 1 2 5 2 1 0 10 20 41 20 0 0 0 0 0 0 0
0 0 0 0 0 0 0 0 0 0 0 0 0 0 0 0 0 0 0 0 0 2 21 58 111 4 0 0 3 1 0 1 1 0 2 2 2 4 25 60 46 13 0 0 0 0 0 0 0
0 0 0 0 0 0 0 0 0 0 0 0 0 0 0 0 0 0 0 0 0 0 9 58 66 2 0 0 1 4 7 0 2 2 1 1 1 3 28 30 23 3 0 0 0 0 0 0 0
0 0 0 0 0 0 0 0 0 0 0 0 0 0 0 0 0 0 0 0 0 0 13 55 12 0 0 0 1 12 6 3 1 1 1 3 2 8 7 10 0 0 0 0 0 0 0 0 0
0 0 0 0 0 0 0 0 0 0 0 0 0 0 0 0 0 0 0 0 0 9 44 79 0 0 0 0 1 3 7 5 3 3 1 2 2 4 23 1 1 0 0 0 0 0 0 0 0
0 0 0 0 0 0 0 0 0 0 0 0 0 0 0 0 0 0 0 0 0 16 34 15 0 0 0 0 0 1 1 6 0 4 1 1 3 3 1 1 0 0 0 0 0 0 0 0 0
0 0 0 0 0 0 0 0 0 0 0 0 0 0 0 0 0 0 0 0 0 34 47 0 0 0 0 0 0 0 3 6 2 3 2 3 0 1 0 1 0 0 0 0 0 0 0 0 0
0 0 0 0 0 0 0 0 0 0 0 0 0 0 0 0 0 0 0 0 0 2 1 0 0 0 0 0 0 0 1 2 1 3 4 1 1 0 0 0 0 0 0 0 0 0 0 0 0
0 0 0 0 0 0 0 0 0 0 0 0 0 0 0 0 0 0 0 0 0 0 0 0 0 0 0 0 0 0 1 0 7 2 2 1 2 0 0 0 0 0 0 0 0 0 0 0 0
0 0 0 0 0 0 0 0 0 0 0 0 0 0 0 0 0 0 0 0 0 0 0 0 0 0 0 0 0 0 0 3 2 1 0 2 2 3 0 0 0 0 0 0 0 0 0 0 0
0 0 0 0 0 0 0 0 0 0 0 0 0 0 0 0 0 0 0 0 0 0 0 0 0 0 0 0 0 0 0 3 1 0 0 3 3 2 1 0 0 0 0 0 0 0 0 0 0
0 0 0 0 0 0 0 0 0 0 0 0 0 0 0 0 0 0 0 0 0 0 0 0 0 0 0 0 0 0 0 1 2 0 0 1 2 2 3 0 0 0 0 0 0 0 0 0 0
0 0 0 0 0 0 0 0 0 0 0 0 0 0 0 0 0 0 0 0 0 0 0 0 0 0 1 0 1 0 0 0 1 1 0 0 1 2 3 0 0 0 0 0 29 24 20 19 16
0 0 0 0 0 0 0 0 0 0 0 0 0 2 0 0 0 0 0 0 1 1 1 1 1 0 1 0 0 0 0 0 0 0 1 1 0 1 2 2 3 3 0 0 8 18 16 33 22
0 0 0 0 0 0 0 0 0 0 0 0 0 0 0 0 0 0 0 1 0 1 1 1 2 1 3 0 0 0 0 0 0 0 0 1 1 1 1 2 2 3 1 0 1 1 1 3 0
0 0 0 0 0 0 0 0 0 15 0 0 0 0 0 0 0 0 2 2 1 1 2 1 1 4 1 0 0 0 0 0 0 0 0 0 0 1 0 0 1 2 6 3 2 1 1 1 2

GFSSGP_con_mlcape_111.txt.gz
CAPE
0 0 0 0 0 0 0 0 0 0 0 0 0 0 0 0 0 0 0 207 1 50 670 887 943 1050 1075 1069 1077 1290 1597 1662 1697 1701 1648 1668 1640 1549 1503 1416 1357 1413 1433 1405 1401 1339 1470 1303 965
0 0 0 0 0 0 0 0 0 0 0 0 0 0 0 0 0 0 0 9 0 122 631 857 746 1064 1176 1182 1126 1393 1770 1861 1878 1868 1648 1503 1533 1474 1391 1391 1447 1421 1416 1395 1504 1495 1411 1097 845
0 0 0 0 0 0 0 0 0 0 0 0 0 0 0 0 0 0 0 0 148 201 520 836 969 1136 1189 1225 1229 1573 2087 2133 1797 1525 1694 1723 1672 1634 1459 1418 1358 1315 1360 1452 1416 1369 1204 861 750
0 0 0 0 0 0 0 0 0 0 0 0 0 0 0 0 0 0 0 80 318 461 712 790 1057 1188 1191 1209 1268 1662 1770 1885 1708 1663 1671 1278 1335 1291 1174 1347 1352 1076 1392 1385 1409 1280 946 727 624
0 0 0 0 0 0 0 0 0 0 0 0 0 0 0 0 0 0 0 245 327 671 768 925 1032 1225 1192 1188 1242 1463 1666 1681 1372 1183 1238 928 603 640 754 897 772 770 1105 1140 1077 1011 762 596 501
0 0 0 0 0 0 0 0 0 0 0 0 0 0 0 0 0 0 135 398 798 733 906 1050 1103 1266 1325 1176 1157 1209 1294 1331 1250 1253 1203 681 238 647 734 685 685 667 682 806 897 802 596 461 335
0 0 0 0 0 0 0 0 0 0 0 0 0 0 0 0 0 0 394 698 790 883 969 1134 1312 1334 1400 1323 1121 1232 1170 856 973 963 738 637 684 670 692 560 410 481 423 571 764 567 429 336 227
0 0 0 0 0 0 0 0 0 0 0 0 0 0 0 0 0 48 500 767 841 946 1166 1166 1320 1420 1542 1617 1354 1139 1198 909 732 630 377 244 193 178 174 66 140 258 426 368 478 385 311 165 117
0 0 0 0 0 0 0 0 0 0 0 0 0 0 0 0 0 40 238 561 727 965 1079 1088 1308 1424 1467 1400 1551 1321 1107 824 664 426 170 111 140 99 40 33 140 181 282 279 301 268 155 106 37
0 0 0 0 0 0 0 0 0 0 0 0 0 0 0 0 0 0 21 34 329 647 834 1125 1288 1369 1290 1120 1254 1557 1241 859 650 442 171 111 131 99 121 137 121 98 207 239 220 151 57 59 40
0 0 0 0 0 0 0 0 0 0 0 0 0 0 0 0 0 0 11 84 53 454 699 905 1115 1354 1245 1036 914 976 940 828 562 313 114 95 94 76 77 70 81 157 265 224 127 28 7 28 1
0 0 0 0 0 0 0 0 0 0 0 0 0 0 0 0 0 0 0 0 111 169 477 660 879 990 946 827 708 581 598 583 348 163 98 72 63 76 91 38 37 110 191 172 50 0 0 0 0
0 0 0 0 0 0 0 0 0 0 0 0 0 0 0 0 0 0 0 12 90 108 282 464 566 782 631 517 375 373 123 393 254 42 54 60 85 83 87 57 48 157 98 86 1 0 0 1 0
0 0 0 0 0 0 0 0 0 0 0 0 0 0 0 0 0 0 0 0 3 66 163 349 406 581 434 318 153 110 57 163 247 66 43 33 60 59 69 66 118 82 69 16 2 0 0 0 0
0 0 0 0 0 0 0 0 0 0 0 0 0 0 0 0 0 0 0 0 0 0 69 215 300 464 407 179 51 32 21 1 14 41 20 13 13 25 41 48 68 54 62 19 0 0 0 0 0
0 0 0 0 0 0 0 0 0 0 0 0 0 0 0 0 0 0 0 0 0 0 9 133 175 311 268 160 115 1 1 0 1 1 2 3 6 4 15 18 33 37 27 13 2 0 0 0 0
0 0 0 0 0 0 0 0 0 0 0 0 0 0 0 0 0 0 0 0 0 0 3 43 212 368 219 87 49 1 1 1 2 2 2 2 5 4 13 46 27 29 12 2 0 0 0 0 0
0 0 0 0 0 0 0 0 0 0 0 0 0 0 0 0 0 0 0 0 0 0 0 29 172 362 116 47 13 2 5 1 8 5 4 2 2 3 5 60 37 2 1 0 0 0 0 0 0
0 0 0 0 0 0 0 0 0 0 0 0 0 0 0 0 0 0 0 0 0 0 0 22 145 180 48 29 3 1 0 0 3 4 3 2 2 3 11 6 1 1 1 0 0 0 0 0 0
0 0 0 0 0 0 0 0 0 0 0 0 0 0 0 0 0 0 0 0 0 0 0 29 79 62 14 1 1 3 8 3 2 2 3 4 1 2 13 3 2 1 1 0 0 0 0 0 0
0 0 0 0 0 0 0 0 0 0 0 0 0 0 0 0 0 0 0 0 0 0 0 20 46 40 4 1 1 0 6 7 9 13 2 2 1 2 3 12 2 2 0 0 0 0 0 0 0
0 0 0 0 0 0 0 0 0 0 0 0 0 0 0 0 0 0 0 0 0 0 0 1 28 8 1 0 0 0 1 5 4 6 4 1 1 2 1 1 1 1 0 0 0 0 0 0 0
0 0 0 0 0 0 0 0 0 0 0 0 0 0 0 0 0 0 0 0 0 0 0 1 14 0 0 0 0 0 6 7 1 3 7 5 1 0 1 0 1 0 0 0 0 0 0 0 0
0 0 0 0 0 0 0 0 0 0 0 0 0 0 0 0 0 0 0 0 0 0 1 3 6 1 0 1 1 2 1 0 1 2 6 1 1 2 2 2 1 0 0 0 0 0 0 0 0
0 0 0 0 0 0 0 0 0 0 0 0 0 0 0 0 0 0 0 0 0 0 1 0 2 0 0 3 4 3 1 1 5 2 1 0 2 2 2 2 2 1 0 0 0 0 0 0 0
0 0 0 0 0 0 0 0 0 0 0 0 0 0 0 0 0 0 0 0 0 0 2 3 1 0 0 4 4 0 3 2 4 0 2 2 3 2 3 2 1 0 0 0 0 0 0 0 0
0 0 0 0 0 0 0 0 0 0 0 0 0 0 0 0 0 0 0 0 0 2 2 3 1 3 1 3 3 0 0 0 2 0 2 2 4 3 3 3 2 0 0 0 0 0 0 0 0
0 0 0 0 0 0 0 0 0 0 2 3 0 0 0 0 0 0 0 0 1 0 1 2 2 2 3 2 0 0 0 1 8 1 1 2 4 2 2 2 0 0 0 0 0 0 0 0 4
0 0 2 0 0 0 0 0 0 0 19 37 0 0 0 0 0 1 2 2 1 0 2 2 1 2 3 1 0 0 0 0 1 0 1 2 2 3 3 3 1 0 0 0 0 1 2 2 3
0 0 0 0 0 0 0 0 0 4 10 3 0 0 0 0 0 0 0 3 2 2 1 2 1 3 2 0 2 0 0 0 1 0 1 1 1 2 4 3 3 2 1 0 0 0 0 0 0

GFSSGP_con_mlcape_114.txt.gz
CAPE
0 0 0 0 0 0 0 0 0 0 0 0 0 0 0 0 0 0 0 579 224 409 917 810 919 918 1017 1098 1096 1271 1548 1762 1755 1596 1566 1472 1568 1531 1414 1390 1421 1498 1633 1520 1425 1434 1411 1335 1010
0 0 0 0 0 0 0 0 0 0 0 0 0 0 0 0 0 0 24 386 178 441 883 1243 916 897 984 1116 1195 1438 1728 1857 1884 1728 1710 1379 1590 1514 1329 1309 1326 1402 1417 1588 1582 1527 1453 1241 1004
0 0 0 0 0 0 0 0 0 0 0 0 0 0 0 0 0 0 0 256 189 450 683 1332 856 894 1073 1170 1212 1528 1993 1972 1950 1841 1607 1256 1223 1067 685 711 1295 1450 1497 1591 1475 1497 1355 1057 968
0 0 0 0 0 0 0 0 0 0 0 0 0 0 0 0 0 0 0 232 339 532 673 1124 731 892 1152 1210 1213 1594 1862 1967 1867 1648 1499 1367 1176 836 616 732 1245 1383 1425 1195 1301 1524 1133 942 855
0 0 0 0 0 0 0 0 0 0 0 0 0 0 0 0 0 29 5 419 468 772 959 1231 829 983 1204 1198 1244 1593 1886 1921 1781 1402 1343 998 405 5 230 250 413 1141 1151 1292 1249 1113 948 748 664
0 0 0 0 0 0 0 0 0 0 0 0 0 0 0 0 0 149 227 652 1011 1336 1473 1610 1098 1091 1160 1205 1206 1546 1570 1661 1477 1162 1258 779 79 4 46 299 642 1005 1136 1184 1070 897 791 584 502
0 0 0 0 0 0 0 0 0 0 0 0 0 0 0 0 2 313 775 1150 1585 1691 1635 1677 1657 1449 1152 1114 1132 1329 1489 1403 1386 1184 1177 710 222 288 450 508 560 906 947 1025 901 716 565 460 321
0 0 0 0 0 0 0 0 0 0 0 0 0 0 0 0 3 341 1017 1267 1451 1717 1722 1741 1825 1801 1721 1435 1087 1166 1100 1223 1328 1167 961 569 159 138 683 629 599 518 623 818 643 535 356 284 213
0 0 0 0 0 0 0 0 0 0 0 0 0 0 0 0 0 97 842 1320 1450 1524 1658 1783 1848 1854 1853 1887 1544 1122 1252 1042 972 985 777 347 615 890 661 484 475 436 510 629 451 352 253 140 105
0 0 0 0 0 0 0 0 0 0 0 0 0 0 0 0 0 0 174 775 1396 1471 1610 1646 1828 1886 1903 1599 1829 1774 1776 1611 1278 1082 758 778 726 545 282 132 246 436 364 318 188 191 164 162 239
0 0 0 0 0 0 0 0 0 0 0 0 0 0 0 0 0 0 0 75 583 1201 1525 1600 1794 1921 1735 1541 1526 1875 1999 1773 1437 1249 910 580 484 196 81 161 251 487 308 379 234 148 284 316 278
0 0 0 0 0 0 0 0 0 0 0 0 0 0 0 0 0 0 0 0 115 698 1448 1630 1691 1893 1650 1451 1453 1635 1417 1420 1174 1096 761 493 452 220 185 226 213 266 260 403 377 296 257 234 183
0 0 0 0 0 0 0 0 0 0 0 0 0 0 0 0 0 0 0 0 0 366 897 1462 1647 1756 1788 1388 1277 1279 1166 1074 924 804 689 504 459 241 178 173 135 216 175 135 214 235 192 149 113
0 0 0 0 0 0 0 0 0 0 0 0 0 0 0 0 0 0 0 0 0 121 573 1110 1464 1605 1525 1332 1130 947 1016 900 706 474 688 606 432 177 183 163 165 103 148 155 85 60 120 102 87
0 0 0 0 0 0 0 0 0 0 0 0 0 0 0 0 0 0 0 0 0 7 264 816 1321 1430 1346 1097 960 900 901 860 489 307 301 338 239 90 150 236 179 112 250 172 30 3 51 81 88
0 0 0 0 0 0 0 0 0 0 0 0 0 0 0 0 0 0 0 0 0 0 12 482 922 1304 1083 883 918 725 655 565 448 206 122 71 91 53 71 148 198 251 106 62 7 15 67 96 93
0 0 0 0 0 0 0 0 0 0 0 0 0 0 0 0 0 0 0 0 0 0 0 308 865 1171 1038 1036 774 498 475 298 141 41 80 80 35 34 83 53 196 173 107 73 20 43 67 68 77
0 0 0 0 0 0 0 0 0 0 0 0 0 0 0 0 0 0 0 0 0 0 0 192 690 1000 925 785 456 494 425 157 38 27 7 20 20 24 29 26 79 110 76 70 44 46 66 64 51
0 0 0 0 0 0 0 0 0 0 0 0 0 0 0 0 0 0 0 0 0 1 0 200 534 881 475 409 394 378 268 49 82 47 3 1 5 5 16 16 72 48 32 76 42 79 57 29 67
0 0 0 0 0 0 0 0 0 0 0 0 0 0 0 0 0 0 0 0 6 52 122 195 445 855 346 334 536 333 58 14 3 9 11 7 2 2 3 8 48 22 24 68 14 58 43 30 37
0 0 0 0 0 0 0 0 0 0 0 0 0 0 0 0 0 0 0 0 1 56 231 277 447 761 545 725 365 389 257 45 51 30 14 8 3 2 3 4 2 2 6 3 0 20 30 16 34
0 0 0 0 0 0 0 0 0 0 0 0 0 0 0 0 0 0 0 0 0 72 237 225 441 537 629 705 380 306 130 12 18 31 44 7 20 15 3 5 2 2 4 1 0 0 26 29 20
0 0 0 0 0 0 0 0 0 0 0 0 0 0 0 0 0 0 0 0 0 81 151 50 269 394 586 637 425 164 9 7 3 45 69 59 17 10 3 2 2 2 1 1 0 0 16 21 45
0 0 0 0 0 0 0 0 0 0 0 0 0 0 0 0 0 8 11 0 0 148 16 5 212 161 100 219 170 40 0 1 6 24 30 22 8 5 2 1 1 2 2 2 0 0 0 14 46
0 0 0 0 0 0 0 0 0 0 0 0 0 0 0 0 35 37 40 32 19 112 1 4 172 54 3 3 5 1 2 0 3 4 9 10 0 0 1 1 1 1 2 2 0 0 1 14 59
0 0 0 0 0 0 0 0 0 0 0 0 0 0 0 15 154 75 59 179 75 0 3 4 56 0 2 3 1 5 2 4 8 17 17 2 0 0 2 2 2 2 2 2 0 0 0 4 15
0 0 0 0 0 0 0 0 0 0 0 0 16 0 1 122 252 183 73 74 64 3 0 4 3 0 1 12 8 4 3 6 6 22 12 0 3 1 2 2 2 2 2 2 2 1 2 3 2
0 0 0 0 0 0 0 0 0 0 0 16 49 33 54 166 102 42 19 4 3 2 4 5 3 4 0 5 4 3 1 9 13 22 3 0 2 2 3 3 3 3 2 2 3 3 2 6 3
0 3 1 0 0 0 0 0 12 46 40 89 101 37 53 64 44 1 3 6 4 2 2 5 3 4 3 0 4 3 3 7 10 9 5 2 2 2 2 3 2 2 2 1 1 0 0 0 0
0 0 10 1 0 0 0 4 87 66 133 224 83 5 10 30 9 0 2 1 0 3 3 3 2 3 3 7 5 0 5 14 6 3 2 2 1 3 2 3 3 2 1 0 0 0 0 0 0

GFSSGP_con_mlcape_117.txt.gz
CAPE
0 0 0 0 0 0 0 0 0 0 0 0 0 0 0 0 0 0 0 27 0 68 837 674 509 652 758 863 949 1037 1268 1556 1577 1386 1298 1208 994 1064 1474 1477 1485 1463 1513 1540 1391 1455 1482 1304 1114
0 0 0 0 0 0 0 0 0 0 0 0 0 0 0 0 0 0 0 26 0 131 923 1244 721 637 822 895 975 1122 1478 1738 1687 1540 1388 1121 961 1061 1016 1186 1330 1308 1468 1505 1472 1485 1477 1182 1034
0 0 0 0 0 0 0 0 0 0 0 0 0 0 0 0 0 0 0 0 0 97 591 1533 687 641 824 949 1096 1378 1744 1823 1786 1769 1432 940 844 739 216 374 541 990 1669 1482 1578 1488 1367 1093 988
0 0 0 0 0 0 0 0 0 0 0 0 0 0 0 0 0 0 0 0 0 101 341 1211 721 775 897 938 1136 1412 1715 1810 1761 1759 1419 881 533 205 86 44 326 390 984 1322 1532 1526 1163 1001 913
0 0 0 0 0 0 0 0 0 0 0 0 0 0 0 0 0 0 0 0 60 151 873 1324 626 834 944 1066 1112 1346 1693 1655 1755 1768 1550 700 273 102 122 123 211 159 425 1124 1403 1270 1028 931 790
0 0 0 0 0 0 0 0 0 0 0 0 0 0 0 0 0 0 0 61 359 667 1314 1470 810 874 976 1125 1070 1358 1642 1721 1752 1672 1348 470 19 0 4 241 210 136 413 1068 1233 988 849 766 681
0 0 0 0 0 0 0 0 0 0 0 0 0 0 0 0 5 336 27 261 885 1403 1619 1690 1337 1159 1022 1097 1023 1256 1476 1596 1716 1598 1267 604 114 32 0 26 106 156 708 1077 946 791 694 627 494
0 0 0 0 0 0 0 0 0 0 0 0 0 0 0 0 0 32 311 629 1168 1679 1668 1772 1669 1639 1646 1493 1075 1085 1374 1326 1459 1297 1073 528 199 20 1 171 373 457 870 972 782 598 511 453 370
0 0 0 0 0 0 0 0 0 0 0 0 0 0 0 0 0 12 511 879 1238 1639 1694 1633 1743 1877 1917 1784 1456 1026 1074 1212 1228 1242 978 450 419 6 311 600 538 668 854 744 474 393 317 260 246
0 0 0 0 0 0 0 0 0 0 0 0 0 0 0 0 0 0 32 601 1130 1411 1687 1664 1769 1929 2051 1682 1756 1384 1430 1379 1219 1418 1182 1030 735 633 716 664 543 526 437 265 246 176 101 177 348
0 0 0 0 0 0 0 0 0 0 0 0 0 0 0 0 0 0 0 0 642 1073 1472 1676 1866 1976 2019 1914 1935 1533 1526 1409 1620 1304 1282 998 757 720 708 555 483 491 312 196 171 63 148 240 339
0 0 0 0 0 0 0 0 0 0 0 0 0 0 0 0 0 0 0 0 0 367 1427 1711 1746 1967 2187 1831 1692 1609 1703 1480 1517 1563 1455 865 828 642 485 147 62 350 417 417 240 252 254 340 339
0 0 0 0 0 0 0 0 0 0 0 0 0 0 0 0 0 0 0 0 0 0 536 1604 1778 1995 2222 1881 1504 1451 1782 1725 1628 1516 1479 926 702 579 361 182 167 341 453 435 290 218 306 300 267
0 0 0 0 0 0 0 0 0 0 0 0 0 0 0 0 0 0 0 0 0 0 202 1053 1808 1929 2246 1701 1573 1658 1523 1494 1718 1627 1499 1143 783 589 492 361 232 126 330 275 119 194 278 191 170
0 0 0 0 0 0 0 0 0 0 0 0 0 0 0 0 0 0 0 0 0 0 7 668 1458 1931 2117 1738 1533 1499 1297 1329 1508 1290 1474 1130 843 684 504 357 192 227 363 111 33 54 118 131 103
0 0 0 0 0 0 0 0 0 0 0 0 0 0 0 0 0 0 0 0 0 0 0 121 739 1713 2016 2008 1670 1350 1135 1167 1267 992 1121 1063 741 687 561 441 342 248 206 52 18 56 47 50 77
0 0 0 0 0 0 0 0 0 0 0 0 0 0 0 0 0 0 0 0 0 0 0 0 660 1261 1930 1876 1491 1342 1264 1174 1108 1007 745 816 600 508 414 361 462 237 220 118 38 35 15 4 52
0 0 0 0 0 0 0 0 0 0 0 0 0 0 0 0 0 0 0 0 0 0 0 0 226 1161 1764 1758 1471 1351 1203 806 778 790 687 588 579 396 203 311 320 370 171 74 7 18 25 32 54
0 0 0 0 0 0 0 0 0 0 0 0 0 0 0 0 0 0 0 0 0 0 0 0 147 1066 1617 1484 1505 1018 885 476 478 508 429 437 357 165 270 104 142 85 99 52 22 27 19 36 108
0 0 0 0 0 0 0 0 0 0 0 0 0 0 0 0 0 0 0 0 0 0 72 103 336 910 1437 1243 935 912 929 813 803 472 270 168 90 169 106 77 31 9 43 45 12 28 3 24 137
0 0 0 0 0 0 0 0 0 0 0 0 0 0 0 0 0 0 0 0 0 0 103 250 393 692 1261 712 738 945 876 581 321 148 192 172 31 10 2 7 17 16 29 6 15 26 3 13 40
0 0 0 0 0 0 0 0 0 0 0 0 0 0 0 0 0 0 0 0 0 0 100 356 415 622 1203 655 865 1083 737 409 383 281 196 121 89 25 3 2 5 3 6 22 13 33 23 28 41
0 0 0 0 0 0 0 0 0 0 0 0 0 0 0 0 0 0 0 0 0 0 119 546 586 701 1065 1025 951 990 1024 641 376 208 236 192 77 40 6 3 2 4 4 5 12 0 41 31 51
0 0 0 0 0 0 0 0 0 0 0 0 0 0 0 0 0 0 6 85 0 156 547 683 611 855 1000 1044 1110 993 965 624 387 257 206 193 106 141 51 5 3 1 1 2 1 2 31 37 29
0 0 0 0 0 0 0 0 0 0 0 0 6 2 0 4 27 58 95 197 25 255 558 118 296 682 731 926 1037 1017 810 476 336 264 181 146 99 63 37 7 4 2 1 1 2 1 10 22 6
0 0 0 0 0 0 0 0 0 0 0 1 0 24 41 96 287 227 342 481 365 423 335 1 117 364 240 698 932 712 566 365 155 73 28 26 34 11 5 5 2 3 2 2 2 2 2 8 4
1 4 0 1 0 0 0 0 0 0 0 34 74 50 170 307 443 418 471 415 293 79 1 0 52 120 8 130 607 418 299 118 15 2 53 94 26 5 8 2 1 1 1 2 2 1 4 2 8
15 0 2 10 3 0 0 0 0 0 0 41 66 154 327 465 411 307 226 84 11 0 2 0 5 11 2 171 350 247 169 94 10 8 91 26 3 1 2 1 1 1 1 2 2 1 3 2 6
16 4 1 3 4 0 0 0 0 2 0 24 115 234 401 465 399 107 1 2 2 4 4 2 3 4 1 135 167 151 72 23 9 38 61 8 0 2 4 2 2 1 1 2 2 2 2 1 3
191 4 6 8 5 1 0 0 93 64 47 53 294 259 458 306 106 9 0 0 0 0 4 4 2 7 4 0 0 11 2 4 15 34 27 5 1 2 2 1 3 2 1 1 2 2 5 2 5

GFSSGP_con_mlcape_120.txt.gz
CAPE
0 0 0 0 0 0 0 0 0 0 0 0 0 0 0 0 0 0 0 32 167 0 0 105 223 383 593 751 785 831 958 1325 1400 1344 1234 1178 1013 947 986 1468 1534 1367 1536 1704 1458 1254 1374 1147 973
0 0 0 0 0 0 0 0 0 0 0 0 0 0 0 0 0 0 0 0 233 287 51 158 191 333 546 701 825 943 1194 1464 1540 1501 1298 1195 850 641 557 611 891 1057 1487 1638 1554 1589 1419 1111 1001
0 0 0 0 0 0 0 0 0 0 0 0 0 0 0 0 0 0 0 0 79 684 880 348 143 233 485 640 835 1066 1377 1691 1754 1666 1401 1150 462 115 221 21 204 173 506 1492 1472 1568 1277 1031 925
0 0 0 0 0 0 0 0 0 0 0 0 0 0 0 0 0 0 0 0 0 374 1274 617 93 212 448 629 905 1212 1511 1559 1512 1528 1505 943 247 78 37 0 16 52 0 593 1189 1407 1040 908 840
0 0 0 0 0 0 0 0 0 0 0 0 0 0 0 0 0 0 0 0 0 717 1160 768 113 170 423 660 953 1234 1460 1457 1458 1575 1470 778 257 89 0 0 0 8 12 251 555 979 952 823 719
0 0 0 0 0 0 0 0 0 0 0 0 0 0 0 0 0 0 0 0 268 1185 1462 833 270 273 464 636 835 1184 1468 1298 1451 1689 1152 623 235 4 0 0 16 0 0 199 537 958 868 768 625
0 0 0 0 0 0 0 0 0 0 0 0 0 0 0 0 0 0 0 158 776 1775 1793 940 469 618 570 647 734 1073 1352 1424 1590 1589 1124 473 292 106 66 87 37 0 0 516 1033 897 825 713 553
0 0 0 0 0 0 0 0 0 0 0 0 0 0 0 36 387 58 1 756 908 1542 2011 1221 1152 864 809 728 718 947 1215 1385 1477 1421 963 488 0 0 0 303 272 81 280 758 789 545 693 628 445
0 0 0 0 0 0 0 0 0 0 0 0 0 0 0 0 7 1 218 643 1230 1736 1931 1914 1626 1433 1407 1304 813 878 1119 1126 1252 1156 948 318 50 179 0 13 37 215 366 667 464 269 252 385 295
0 0 0 0 0 0 0 0 0 0 0 0 0 0 0 0 0 8 338 766 1321 1841 1904 2017 1891 1833 1959 1769 1434 995 1102 1171 1225 1319 817 783 669 357 178 450 367 248 270 577 245 179 132 202 208
0 0 0 0 0 0 0 0 0 0 0 0 0 0 0 0 0 0 79 601 1090 1604 2013 1901 1993 2156 2185 1559 1780 1311 1527 1283 1247 1474 1313 1238 1010 546 310 546 509 217 246 257 140 128 71 141 197
0 0 0 0 0 0 0 0 0 0 0 0 0 0 0 0 0 0 0 0 543 1042 1763 1885 2067 2365 2310 1778 1698 1637 1317 1525 1573 1218 1473 1293 1034 760 532 454 349 97 239 132 167 73 59 47 86
0 0 0 0 0 0 0 0 0 0 0 0 0 0 0 0 0 0 0 0 0 573 1517 1767 2014 2254 2411 2023 1696 1843 1438 1712 1584 1517 1362 1308 996 859 717 341 290 161 407 343 160 46 28 61 116
0 0 0 0 0 0 0 0 0 0 0 0 0 0 0 0 0 0 0 0 0 0 1380 1850 1817 2216 2546 2134 1903 1616 2070 1534 1725 1709 1637 1401 1006 792 570 238 92 358 302 453 149 55 81 55 158
0 0 0 0 0 0 0 0 0 0 0 0 0 0 0 0 0 0 0 0 0 0 0 1725 1985 2090 2598 2248 1895 1733 1991 1754 1703 1637 1699 1344 1049 730 421 302 182 178 312 299 135 64 61 101 127
0 0 0 0 0 0 0 0 0 0 0 0 0 0 0 0 0 0 0 0 0 0 0 880 1996 1986 2332 2404 1724 1589 1685 1589 1531 1207 1525 1353 1137 822 586 398 236 136 205 144 24 26 9 36 50
0 0 0 0 0 0 0 0 0 0 0 0 0 0 0 0 0 0 0 0 0 0 0 67 1000 1791 2163 2349 1888 1573 1504 1575 1490 1219 1135 1522 1186 924 587 468 237 176 215 60 8 2 5 27 22
0 0 0 0 0 0 0 0 0 0 0 0 0 0 0 0 0 0 0 0 0 0 0 71 611 1440 2129 2463 2140 1832 1686 1335 1436 1366 1040 1200 1174 853 602 443 225 181 209 34 0 2 9 17 7
0 0 0 0 0 0 0 0 0 0 0 0 0 0 0 0 0 0 0 0 0 0 0 0 708 1226 1923 2183 2115 1735 1527 1241 1168 1049 848 660 869 697 562 344 214 178 155 32 2 6 13 2 1
0 0 0 0 0 0 0 0 0 0 0 0 0 0 0 0 0 0 0 0 0 0 0 0 1 1111 1722 2110 2060 1650 1512 914 627 507 484 442 604 616 419 380 188 111 160 39 1 1 5 1 3
0 0 0 0 0 0 0 0 0 0 0 0 0 0 0 0 0 0 0 0 0 0 0 19 120 317 1480 1998 1806 1330 967 772 490 563 459 330 260 424 188 334 91 62 46 6 1 0 12 6 4
0 0 0 0 0 0 0 0 0 0 0 0 0 0 0 0 0 0 0 0 0 0 0 99 167 325 1166 1716 1326 1110 855 904 749 532 311 292 139 83 179 148 38 19 3 3 2 1 0 1 0
0 0 0 0 0 0 0 0 0 0 0 0 0 0 0 0 0 0 0 0 0 0 0 19 283 421 1103 1345 1012 899 953 839 511 474 238 188 202 89 0 6 17 18 5 5 6 2 2 0 0
0 0 0 0 0 0 0 0 0 0 0 0 0 0 0 0 1 1 0 0 0 130 147 382 573 555 1156 1150 1024 942 1098 957 644 634 519 290 97 167 64 1 3 4 4 4 1 14 1 2 0
3 11 0 0 0 0 0 0 0 0 0 0 2 101 109 59 25 21 45 140 55 574 845 976 840 762 1247 1258 1053 1089 1201 1304 861 526 448 414 208 191 68 2 4 2 2 1 6 4 6 13 1
1 15 1 6 1 0 0 0 0 0 0 0 185 232 172 153 223 363 503 487 484 776 824 275 99 427 1141 1221 1104 1181 814 1190 776 563 369 326 124 107 283 12 3 2 0 2 1 2 3 18 4
62 9 1 16 0 2 0 0 0 0 0 0 403 212 178 405 479 586 574 410 239 179 86 18 0 78 404 581 768 932 905 745 541 365 243 208 187 214 14 1 3 2 1 7 2 1 6 2 8
46 87 51 17 0 0 0 0 0 0 0 1 370 232 462 699 527 398 195 47 2 0 0 1 2 34 113 119 423 629 511 432 246 100 97 85 159 16 1 1 1 3 2 1 1 2 1 2 8
0 33 71 14 2 0 0 0 0 3 0 158 262 365 260 461 332 75 5 0 0 0 0 5 2 4 17 8 115 378 267 190 114 54 116 36 15 2 1 0 2 0 0 1 1 2 2 5 16
0 0 23 29 1 0 0 0 0 30 21 132 201 331 493 405 114 1 2 2 0 0 0 0 1 4 11 0 10 226 187 83 17 26 141 60 1 1 1 1 1 1 1 0 0 1 1 6 9

GFSSGP_con_mlcape_123.txt.gz
CAPE
0 0 0 0 0 0 0 0 0 0 0 0 0 0 0 0 0 0 0 0 0 0 37 134 78 262 410 531 593 759 1093 1219 1242 1135 1088 1086 964 930 939 1096 1025 958 1024 1317 1129 1050 960 928 846
0 0 0 0 0 0 0 0 0 0 0 0 0 0 0 0 0 15 7 0 0 0 0 16 20 184 357 511 615 722 956 1276 1350 1252 1177 1059 1009 784 471 350 269 309 312 929 1440 1430 1069 898 842
0 0 0 0 0 0 0 0 0 0 0 0 0 0 0 0 0 0 72 25 0 0 0 0 15 148 364 432 601 826 1135 1367 1459 1429 1248 993 661 442 251 267 99 199 89 399 979 1513 1153 857 796
0 0 0 0 0 0 0 0 0 0 0 0 0 0 0 0 0 0 146 309 0 29 20 0 40 171 380 518 739 996 1303 1291 1280 1325 1228 677 405 251 264 92 25 18 48 218 628 908 911 854 738
0 0 0 0 0 0 0 0 0 0 0 0 0 0 0 0 0 0 72 287 308 375 489 5 40 243 456 679 974 1216 1024 1130 1177 1302 1060 674 373 353 144 59 0 1 4 106 394 859 951 796 692
0 0 0 0 0 0 0 0 0 0 0 0 0 0 0 0 0 0 0 140 654 624 755 293 140 280 481 753 988 1200 1135 1120 1162 1408 968 588 353 187 51 33 3 0 1 63 285 740 731 742 580
0 0 0 0 0 0 0 0 0 0 0 0 0 0 0 0 0 0 7 437 739 830 694 463 89 326 536 690 945 1190 1004 1029 1286 1270 880 565 394 7 0 4 0 0 15 79 312 707 489 546 449
0 0 0 0 0 0 0 0 0 0 0 0 0 0 0 0 0 0 368 700 898 1060 795 482 11 230 463 602 878 1116 1143 1082 1376 1180 770 351 21 0 0 0 12 3 22 180 679 707 362 430 277
0 0 0 0 0 0 0 0 0 0 0 0 0 0 130 129 25 52 490 721 976 1165 1048 721 40 171 388 520 717 1016 1206 1320 1357 1126 651 284 1 0 29 163 90 3 0 319 439 421 226 234 227
0 0 0 0 0 0 0 0 0 0 0 0 0 1 12 22 26 143 568 852 1043 1247 1344 1233 441 346 690 697 582 809 982 1038 1154 946 550 136 0 0 0 234 295 73 186 387 373 221 209 202 193
0 0 0 0 0 0 0 0 0 0 0 0 0 0 0 0 0 9 365 999 1157 1396 1698 1674 1434 1082 1042 1153 729 580 859 892 1044 865 553 261 21 216 0 25 21 123 290 367 240 154 139 164 137
0 0 0 0 0 0 0 0 0 0 0 0 0 0 0 0 0 0 83 540 1228 1493 1550 1783 1742 1685 1560 1311 1170 726 711 766 922 957 760 717 571 276 57 355 256 151 154 165 84 95 103 139 119
0 0 0 0 0 0 0 0 0 0 0 0 0 0 0 0 0 0 0 373 716 1415 1597 1607 1825 1914 1911 1464 1430 1094 931 980 864 1210 1095 976 747 376 236 350 184 86 96 62 24 38 48 76 68
0 0 0 0 0 0 0 0 0 0 0 0 0 0 0 0 0 0 0 0 135 986 1589 1700 1815 1998 2023 1750 1470 1369 1120 1187 1326 1053 1313 1028 824 605 428 265 158 32 71 18 18 25 9 18 41
0 0 0 0 0 0 0 0 0 0 0 0 0 0 0 0 0 0 0 0 0 11 1251 1659 1860 1997 2112 1918 1666 1395 1551 1077 1480 1461 1209 1153 865 676 534 270 182 73 43 79 79 18 24 22 51
0 0 0 0 0 0 0 0 0 0 0 0 0 0 0 0 0 0 0 0 0 0 641 1370 1846 1983 2073 2030 1817 1482 1500 1404 1397 1560 1437 1169 894 682 524 283 227 250 78 41 36 18 14 28 17
0 0 0 0 0 0 0 0 0 0 0 0 0 0 0 0 0 0 0 0 0 0 21 803 1524 1997 2176 2028 1869 1692 1512 1598 1486 1347 1420 1256 952 670 492 226 91 99 53 19 12 8 11 13 24
0 0 0 0 0 0 0 0 0 0 0 0 0 0 0 0 0 0 0 0 0 0 0 427 1348 1873 2239 2035 1836 1569 1433 1391 1374 1242 1015 1245 1031 714 507 339 217 176 99 0 3 0 0 1 14
0 0 0 0 0 0 0 0 0 0 0 0 0 0 0 0 0 0 0 0 0 0 0 293 1415 1838 2171 1945 1780 1688 1555 1193 1236 1259 1020 988 1139 889 631 445 267 171 94 0 0 0 0 0 3
0 0 0 0 0 0 0 0 0 0 0 0 0 0 0 0 0 0 0 0 0 0 0 0 884 1781 2018 2044 1844 1761 1505 1248 1138 1295 1013 756 993 849 586 407 279 199 119 13 0 0 0 0 1
0 0 0 0 0 0 0 0 0 0 0 0 0 0 0 0 0 0 0 0 0 0 0 1 591 1433 1811 2122 1924 1529 1177 1128 1015 1007 746 627 476 531 574 404 238 185 172 37 4 0 0 0 0
0 0 0 0 0 0 0 0 0 0 0 0 0 0 0 0 0 0 0 0 0 0 0 0 199 1137 1543 1968 1918 1689 1466 1222 962 742 606 462 398 468 405 325 240 137 153 70 25 0 0 0 0
3 0 0 0 0 0 0 0 0 0 0 0 0 0 0 0 0 0 0 0 0 0 3 0 0 605 1314 1845 1797 1573 1362 1097 786 642 513 378 274 205 234 151 202 113 84 28 31 5 1 0 0
0 0 0 0 0 0 0 0 0 0 0 0 0 0 0 0 0 0 0 0 2 0 0 18 25 135 1140 1496 1567 1545 1383 1048 699 558 389 266 181 137 22 47 118 35 8 2 2 12 1 0 0
0 0 1 0 0 0 0 0 0 0 0 0 0 0 114 2 0 95 128 193 564 341 201 311 390 811 941 1060 1230 1307 1211 909 642 436 374 269 224 238 31 8 14 8 10 4 2 3 2 1 0
0 0 0 2 0 0 0 0 0 0 0 0 0 276 312 395 559 503 428 535 487 567 499 470 430 243 1030 969 1087 1133 1063 876 793 646 432 362 258 155 54 19 1 0 1 4 6 3 5 1 2
0 0 0 19 1 0 6 0 0 0 0 0 0 184 538 725 585 435 200 108 48 32 34 24 17 0 462 1044 1151 1073 982 950 1043 716 392 398 343 198 96 73 34 0 0 2 4 5 5 4 1
0 0 2 0 0 0 0 0 0 0 0 0 0 536 732 670 387 185 73 24 1 0 0 0 0 0 12 277 636 848 918 904 582 347 184 249 269 143 81 96 76 18 1 3 1 4 19 24 19
0 0 0 2 0 0 0 0 0 0 0 9 100 841 680 377 252 86 4 0 0 0 0 0 0 0 2 0 27 403 526 552 294 162 70 47 50 81 56 9 2 0 0 5 5 3 2 3 11
0 0 0 0 0 0 0 0 0 0 12 243 686 807 267 65 21 1 0 0 0 0 0 0 0 0 0 2 8 62 370 281 194 69 39 17 8 13 2 0 1 1 1 0 1 4 1 1 8

GFSSGP_con_mlcape_126.txt.gz
CAPE
0 0 0 0 0 0 0 0 0 0 0 0 0 0 0 0 0 1 6 0 0 0 349 477 420 337 306 488 661 748 882 974 943 1010 921 950 1147 1211 1191 1024 849 677 714 809 908 849 801 938 691
0 0 0 0 0 0 0 0 0 0 0 0 0 0 0 14 60 33 0 0 0 0 128 272 289 173 215 379 558 785 1006 1125 1065 1045 920 921 983 901 756 575 448 399 595 774 765 809 785 656 629
0 0 0 0 0 0 0 0 0 0 0 0 0 0 0 5 86 1 0 0 2 2 92 207 125 119 212 354 458 706 1065 1216 1167 1052 1036 855 680 462 456 399 311 328 457 609 743 826 701 613 689
0 0 0 0 0 0 0 0 0 0 0 0 0 0 0 16 27 26 0 0 0 0 32 109 64 81 208 377 543 796 1079 1242 1226 1189 965 749 549 388 438 400 188 185 469 444 721 869 759 744 676
0 0 0 0 0 0 0 0 0 0 0 0 0 0 0 0 1 0 0 0 0 0 12 92 47 90 245 406 604 844 1117 1239 1281 1184 864 565 543 412 324 99 13 3 63 222 515 758 621 649 556
0 0 0 0 0 0 0 0 0 0 0 0 0 0 0 0 0 5 0 0 0 0 0 53 120 197 285 563 697 829 871 1170 1244 1229 782 534 311 269 141 0 31 2 1 78 391 588 485 616 570
0 0 0 0 0 0 0 0 0 0 0 0 0 0 0 0 18 79 3 158 86 0 0 0 146 368 487 645 742 780 796 1050 1311 1140 781 477 389 143 39 0 0 0 1 109 246 545 429 488 358
0 0 0 0 0 0 0 0 0 0 0 0 0 0 0 0 0 123 633 613 469 250 107 11 69 440 666 844 863 883 860 975 1274 1101 736 374 122 2 0 0 0 0 0 132 317 547 328 410 287
0 0 0 0 0 0 0 0 0 0 0 0 0 0 0 17 99 619 660 797 774 600 422 251 58 221 425 766 1004 949 841 980 1217 963 626 298 28 0 0 0 0 2 8 120 357 397 437 287 223
0 0 0 0 0 0 0 0 0 0 0 0 0 157 59 15 179 430 486 500 708 628 559 381 139 91 331 645 973 979 988 1058 1196 788 418 49 0 0 0 0 0 0 0 234 475 684 340 212 189
0 0 0 0 0 0 0 0 0 0 0 0 0 0 4 69 257 279 423 429 474 690 833 634 267 159 268 440 699 868 997 1041 1034 737 323 32 0 0 0 8 45 0 0 228 314 321 154 199 132
0 0 0 0 0 0 0 0 0 0 0 0 0 0 0 0 38 299 366 419 619 873 955 1063 745 217 460 412 471 639 756 852 848 712 328 97 0 0 0 7 19 0 68 196 182 126 124 146 140
0 0 0 0 0 0 0 0 0 0 0 0 0 0 0 0 0 0 228 699 750 971 1273 1353 1312 806 619 622 451 482 593 712 746 655 493 249 102 36 0 0 0 0 75 83 78 43 87 100 129
0 0 0 0 0 0 0 0 0 0 0 0 0 0 0 0 0 0 0 266 1179 973 1074 1471 1628 1510 1260 1053 857 652 503 649 729 692 656 589 370 231 44 48 113 0 74 24 32 9 53 86 97
0 0 0 0 0 0 0 0 0 0 0 0 0 0 0 0 0 0 0 0 750 1325 1183 1400 1762 1783 1709 1394 1282 1023 790 646 699 846 845 811 630 430 115 126 141 53 18 0 5 0 24 37 57
0 0 0 0 0 0 0 0 0 0 0 0 0 0 0 0 0 0 0 0 0 884 1334 1478 1820 1947 1878 1694 1550 1372 997 902 926 884 1117 938 721 587 241 267 180 85 26 0 0 0 6 6 33
0 0 0 0 0 0 0 0 0 0 0 0 0 0 0 0 0 0 0 0 0 0 391 1288 1719 1874 2022 1844 1626 1532 1376 1042 1088 1276 1140 1028 806 660 487 317 197 94 22 6 0 0 0 6 14
0 0 0 0 0 0 0 0 0 0 0 0 0 0 0 0 0 0 0 0 0 0 0 335 1246 1837 2117 2012 1684 1485 1465 1410 1218 1403 1364 1064 860 702 549 321 202 137 46 0 0 0 0 3 14
0 0 0 0 0 0 0 0 0 0 0 0 0 0 0 0 0 0 0 0 0 0 0 0 654 1540 2146 1999 1795 1609 1573 1340 1363 1316 1364 1239 973 732 539 329 204 150 114 9 0 0 0 0 9
0 0 0 0 0 0 0 0 0 0 0 0 0 0 0 0 0 0 0 0 0 0 0 0 327 1039 2016 2041 1909 1725 1596 1353 1437 1260 1261 1273 1132 876 641 467 227 106 79 0 1 0 0 0 4
0 0 0 0 0 0 0 0 0 0 0 0 0 0 0 0 0 0 0 0 0 0 0 0 88 1051 1914 2078 1834 1558 1137 1016 1173 1278 1276 1085 1030 1009 832 515 334 265 179 65 0 0 0 0 0
0 0 0 0 0 0 0 0 0 0 0 0 0 0 0 0 0 0 0 0 0 0 0 0 105 1148 2010 2032 1774 1725 1545 1353 1390 1192 1230 1024 809 778 734 573 406 318 224 65 1 0 0 0 0
0 0 0 0 0 0 0 0 0 0 0 0 0 0 0 0 0 0 0 0 0 0 0 0 306 1349 1983 2044 1830 1693 1571 1307 1153 916 928 884 701 666 528 498 385 316 263 149 24 2 1 0 0
0 0 0 0 0 0 0 0 0 0 0 0 0 0 0 0 0 0 0 0 0 0 0 37 621 1330 1835 2045 1889 1696 1471 1176 1048 921 944 722 564 468 443 437 365 235 204 203 72 12 2 3 0
0 0 0 0 0 0 0 0 0 0 0 0 0 0 0 0 0 0 0 0 0 0 12 88 698 1186 1719 1870 1863 1704 1405 1196 1136 995 878 632 356 266 282 311 280 233 149 119 67 47 5 5 2
0 0 0 0 0 0 0 0 0 0 0 0 0 0 0 112 149 112 114 269 297 211 167 301 528 972 1343 1464 1537 1543 1275 1170 1039 899 627 374 326 227 179 145 100 61 66 64 41 39 14 6 8
0 0 0 1 0 1 0 0 0 0 0 0 0 0 331 448 374 320 234 84 52 53 53 88 206 658 1030 1151 1160 1047 957 1006 891 719 489 318 228 232 192 104 28 14 6 20 17 14 8 7 6
0 0 0 0 0 0 0 0 0 0 0 0 0 1 0 53 200 121 79 34 0 0 0 0 5 48 210 495 901 1045 926 725 839 697 631 478 368 260 275 62 11 1 2 2 3 8 7 12 7
0 0 0 0 0 9 0 0 35 63 128 170 181 42 0 3 4 0 0 0 0 0 0 0 0 0 8 54 155 537 651 731 754 656 625 552 361 294 239 90 20 9 7 0 4 11 13 19 18
0 0 0 0 0 0 2 0 2 0 50 2 3 10 8 2 3 2 2 1 0 0 0 0 0 0 0 1 0 28 310 229 170 212 82 180 244 185 93 17 20 9 5 0 3 11 14 7 8

GFSSGP_con_mlcape_129.txt.gz
CAPE
0 0 0 0 0 0 0 0 0 0 0 0 0 0 0 0 0 0 44 79 81 122 570 784 711 671 623 654 694 771 809 804 682 623 752 916 1078 1241 1195 1077 1012 1012 1003 848 853 879 917 763 769
0 0 0 0 0 0 0 0 0 0 0 0 0 0 0 0 33 57 25 35 35 230 537 578 453 493 543 539 637 825 935 881 813 714 831 907 1044 1078 996 820 722 879 1029 1056 994 1030 855 681 698
0 0 0 0 0 0 0 0 0 0 0 0 0 0 0 0 35 58 7 43 123 282 398 282 234 298 294 376 524 816 960 891 891 782 859 991 908 825 746 532 513 726 961 999 1029 945 732 578 663
0 0 0 0 0 0 0 0 0 0 0 0 0 0 0 3 8 0 17 25 36 96 104 86 197 275 127 215 413 740 881 864 914 894 838 814 702 667 521 330 401 729 954 1114 1039 739 680 642 590
0 0 0 0 0 0 0 0 0 0 0 0 0 0 0 0 0 0 0 0 0 19 32 68 303 201 104 218 383 698 865 919 999 1020 792 667 629 559 373 192 296 651 828 1030 939 647 662 607 580
0 0 0 0 0 0 0 0 0 0 0 0 0 0 0 0 54 0 0 0 0 0 11 123 424 271 174 268 468 661 846 941 1051 992 741 693 534 392 299 112 58 324 493 633 651 638 593 560 681
0 0 0 0 0 0 0 0 0 0 0 0 0 0 0 0 47 0 0 0 9 1 53 338 420 421 331 294 385 659 804 932 1072 886 666 564 417 236 196 12 0 24 275 544 524 628 539 590 542
0 0 0 0 0 0 0 0 0 0 0 0 0 0 0 0 16 1 7 108 0 44 247 347 383 419 396 520 424 489 703 922 1111 904 608 416 187 113 38 0 0 2 65 394 427 550 571 526 400
0 0 0 0 0 0 0 0 0 0 0 0 0 0 0 0 219 89 43 173 10 125 259 377 329 421 456 530 647 616 746 962 1114 952 610 381 134 34 10 0 0 0 35 285 467 444 463 404 301
0 0 0 0 0 0 0 0 0 0 0 0 0 0 0 0 272 627 41 17 33 0 61 123 216 245 504 730 883 758 819 962 1059 868 526 214 14 0 0 0 0 0 0 199 407 453 401 329 165
0 0 0 0 0 0 0 0 0 0 0 0 0 0 0 0 2 704 1133 748 108 231 299 130 145 216 425 708 955 839 840 982 1004 727 404 168 11 0 0 0 0 0 1 210 357 372 328 268 143
0 0 0 0 0 0 0 0 0 0 0 0 0 0 0 0 0 33 684 1109 1267 855 634 453 306 240 387 653 892 876 805 818 880 621 360 70 0 0 0 0 0 0 0 68 165 258 225 197 145
0 0 0 0 0 0 0 0 0 0 0 0 0 0 0 0 0 0 0 216 782 1171 1230 790 550 392 406 445 714 847 826 811 810 622 330 70 0 0 0 0 0 0 0 29 36 80 87 102 125
0 0 0 0 0 0 0 0 0 0 0 0 0 0 0 0 0 0 0 0 11 775 1387 1392 815 586 481 355 424 578 814 849 800 635 446 176 21 0 1 0 0 0 0 4 9 42 40 64 89
0 0 0 0 0 0 0 0 0 0 0 0 0 0 0 0 0 0 0 0 0 1 733 1583 1387 922 681 397 340 476 614 781 699 611 634 354 196 26 17 0 0 0 0 1 0 8 12 28 54
0 0 0 0 0 0 0 0 0 0 0 0 0 0 0 0 0 0 0 0 0 0 383 1507 1817 1540 1116 835 558 513 508 582 729 727 623 614 426 239 111 26 0 30 0 0 0 1 2 7 25
0 0 0 0 0 0 0 0 0 0 0 0 0 0 0 0 0 0 0 0 0 0 94 1219 1826 1830 1737 1431 1129 898 742 624 685 752 687 674 633 481 284 215 45 95 16 0 0 0 0 0 20
0 0 0 0 0 0 0 0 0 0 0 0 0 0 0 0 0 0 0 0 0 0 2 456 1554 1879 1993 1785 1478 1331 1070 951 818 726 779 717 713 628 445 263 80 136 109 11 0 0 0 2 13
0 0 0 0 0 0 0 0 0 0 0 0 0 0 0 0 0 0 0 0 0 0 0 21 643 1535 1998 1903 1662 1499 1470 1190 966 1010 896 883 876 727 562 395 242 199 160 62 0 0 0 0 7
0 0 0 0 0 0 0 0 0 0 0 0 0 0 0 0 0 0 0 0 0 0 0 0 94 898 1651 1942 1841 1631 1572 1415 1149 1124 1182 1149 972 775 629 487 398 310 179 39 7 0 0 0 2
0 0 0 0 0 0 0 0 0 0 0 0 0 0 0 0 0 0 0 0 0 0 0 0 18 601 1298 1965 1976 1635 1278 1152 1283 1278 1334 1281 1087 909 814 581 503 375 230 82 18 2 0 2 1
0 0 0 0 0 0 0 0 0 0 0 0 0 0 0 0 0 0 0 0 0 0 0 0 2 527 1219 1996 1920 1688 1642 1406 1403 1364 1293 1227 1173 1043 956 769 504 348 288 145 63 17 5 5 0
0 0 0 0 0 0 0 0 0 0 0 0 0 0 0 0 0 0 0 0 0 0 0 0 0 511 1325 1928 1849 1715 1707 1557 1368 1471 1376 1205 1338 1213 1013 710 544 422 284 216 81 21 3 4 4
0 0 0 0 0 0 0 0 0 0 0 0 0 0 0 0 0 0 0 0 0 0 0 0 0 555 1487 1804 1822 1743 1750 1512 1357 1307 1345 1179 1041 972 829 653 593 524 450 289 104 46 7 1 2
0 0 0 0 0 0 0 0 1 0 0 0 0 0 0 0 0 0 0 0 0 0 0 0 315 1176 1871 1896 1840 1794 1751 1495 1423 1156 947 1020 986 846 664 628 539 480 435 331 162 50 21 10 8
0 0 0 0 0 0 0 0 0 0 72 44 45 0 0 212 289 247 154 0 2 6 30 258 635 1418 2092 2147 1917 1748 1419 1337 1253 1067 930 877 874 793 609 576 515 419 348 316 196 91 53 16 9
0 0 0 0 0 0 0 0 0 4 106 99 46 63 286 226 26 37 7 51 154 304 272 410 986 1429 1596 1726 1260 1365 1234 1135 1092 1022 936 853 758 666 447 454 380 325 307 273 172 113 74 35 7
0 0 0 2 0 0 0 0 0 0 5 0 10 6 0 1 25 3 3 2 3 4 14 12 29 274 626 848 1003 1151 1131 1126 1040 907 864 733 629 394 208 200 198 197 201 122 52 54 58 43 43
0 0 0 0 0 0 0 0 0 8 2 0 5 2 7 0 2 4 4 4 4 3 1 0 0 2 30 142 485 753 892 959 855 782 739 630 406 277 211 162 151 89 31 6 11 6 16 18 21
0 0 0 0 0 0 0 0 27 3 16 4 3 6 16 5 1 4 4 2 1 4 1 0 0 0 0 11 59 262 350 451 669 638 487 474 442 306 300 191 110 2 0 0 3 2 6 7 15

GFSSGP_con_mlcape_132.txt.gz
CAPE
0 0 0 0 0 0 0 0 0 0 0 0 0 0 0 0 0 0 19 80 57 455 775 799 816 791 793 753 655 605 554 522 584 716 957 1075 1121 1018 1041 1116 1110 1160 1145 1024 1044 1021 883 852 838
0 0 0 0 0 0 0 0 0 0 0 0 0 0 0 0 0 37 252 106 90 438 736 792 808 807 776 786 755 743 700 658 634 679 861 1024 1074 1094 1096 1057 1048 1124 1169 1063 1149 1088 976 808 815
0 0 0 0 0 0 0 0 0 0 0 0 0 0 0 0 13 215 2 344 294 355 630 729 812 807 753 775 792 805 815 686 635 711 868 1035 1170 1175 1018 926 1004 1063 1078 1102 1250 1096 928 828 857
0 0 0 0 0 0 0 0 0 0 0 0 0 0 0 0 35 141 28 362 132 296 511 625 675 711 686 817 880 948 838 743 686 769 904 1069 1095 1010 772 643 791 1038 1004 1171 1239 1078 836 763 800
0 0 0 0 0 0 0 0 0 0 0 0 0 0 0 0 0 15 30 111 6 255 535 605 484 486 658 927 913 901 825 800 740 774 868 903 919 744 453 402 686 963 984 1039 882 798 756 720 754
0 0 0 0 0 0 0 0 0 0 0 0 0 0 0 0 0 14 149 10 138 246 416 471 422 341 654 887 841 829 801 810 811 721 759 838 714 479 258 293 610 741 592 434 520 712 749 714 677
0 0 0 0 0 0 0 0 0 0 0 0 0 0 0 0 0 0 48 177 177 427 414 453 600 673 747 678 716 743 784 816 879 732 683 689 577 334 156 125 440 500 432 236 497 716 696 603 526
0 0 0 0 0 0 0 0 0 0 0 0 0 0 0 0 0 0 0 154 170 326 328 353 538 882 905 781 714 774 822 865 887 756 646 599 420 212 107 26 27 194 342 204 611 679 677 627 513
0 0 0 0 0 0 0 0 0 0 0 0 0 0 0 0 27 93 4 4 171 240 285 326 546 751 792 822 900 942 906 934 903 786 621 440 225 124 14 0 13 0 202 217 414 558 666 426 435
0 0 0 0 0 0 0 0 0 0 0 0 0 0 0 0 0 93 61 0 82 173 410 507 692 817 810 915 991 923 1010 1061 1036 774 554 277 99 9 0 0 0 0 91 205 167 235 413 276 256
0 0 0 0 0 0 0 0 0 0 0 0 0 0 0 0 0 61 241 290 250 340 256 591 728 800 793 952 947 763 906 1057 1034 785 474 248 79 6 0 0 0 0 70 192 182 205 274 230 177
0 0 0 0 0 0 0 0 0 0 0 0 0 0 0 0 0 0 76 323 750 784 510 414 740 723 889 976 953 869 786 918 907 756 469 198 35 0 0 0 0 0 0 72 124 133 179 182 148
0 0 0 0 0 0 0 0 0 0 0 0 0 0 0 0 0 0 0 89 579 894 1116 832 561 728 832 919 961 915 942 822 813 700 446 201 49 0 0 0 0 0 1 79 46 98 116 143 129
0 0 0 0 0 0 0 0 0 0 0 0 0 0 0 0 0 0 0 0 0 134 988 1122 1067 673 788 837 850 755 779 700 870 686 437 222 30 0 0 0 0 0 0 17 26 35 76 89 109
0 0 0 0 0 0 0 0 0 0 0 0 0 0 0 0 0 0 0 0 0 0 27 1086 1195 1046 814 762 728 715 633 674 705 624 481 241 24 0 0 0 0 0 0 0 4 4 10 28 45
0 0 0 0 0 0 0 0 0 0 0 0 0 0 0 0 0 0 0 0 0 0 0 314 1110 1183 1093 786 661 608 695 594 703 602 574 336 126 1 0 7 0 0 0 0 0 0 0 11 32
0 0 0 0 0 0 0 0 0 0 0 0 0 0 0 0 0 0 0 0 0 0 0 0 694 957 1277 1112 750 599 569 697 666 578 592 493 293 114 16 24 8 0 0 0 0 0 0 0 22
0 0 0 0 0 0 0 0 0 0 0 0 0 0 0 0 0 0 0 0 0 0 0 0 314 1079 1404 1431 1109 741 629 656 693 694 645 554 444 302 170 58 39 0 0 0 0 0 0 0 4
0 0 0 0 0 0 0 0 0 0 0 0 0 0 0 0 0 0 0 0 0 0 0 0 198 989 1751 1717 1492 1128 772 676 754 743 729 593 572 464 349 208 109 83 91 41 0 0 0 0 0
0 0 0 0 0 0 0 0 0 0 0 0 0 0 0 0 0 0 0 0 0 0 0 0 42 1037 1702 1982 1787 1635 1384 1066 947 847 754 707 703 610 456 369 237 170 111 100 9 2 0 0 0
0 0 0 0 0 0 0 0 0 0 0 0 0 0 0 0 0 0 0 0 0 0 0 0 0 451 1482 1945 2018 1808 1676 1391 1086 987 955 895 829 601 554 462 326 245 156 158 52 7 0 0 0
0 0 0 0 0 0 0 0 0 0 0 0 0 0 0 0 0 0 0 0 0 0 0 0 0 1 767 1994 2010 1797 1721 1596 1380 1283 1208 1083 886 693 705 540 423 386 270 188 67 9 3 0 0
0 0 0 0 0 0 0 0 0 0 0 0 0 0 51 0 0 0 0 0 0 0 0 0 0 0 208 1724 1868 1763 1662 1621 1532 1433 1318 1137 1065 902 845 673 655 635 435 227 94 36 9 0 0
0 0 0 0 0 0 0 0 0 0 0 0 2 27 108 233 0 0 0 0 0 0 0 0 0 0 146 1592 1888 1833 1718 1572 1510 1508 1372 1157 1097 1069 1118 940 764 598 460 335 153 83 34 13 5
0 0 0 0 0 0 0 0 0 0 0 11 32 26 19 172 274 165 72 0 0 0 0 0 0 0 99 1155 2023 1970 1768 1595 1414 1523 1366 1180 1187 1164 1189 962 711 583 474 346 192 114 32 15 2
0 0 0 0 0 0 0 0 0 0 11 25 72 1 10 50 177 153 178 152 91 4 0 64 61 11 330 1438 2104 2029 1831 1622 1520 1457 1365 1131 1040 1113 1127 943 703 577 454 407 291 218 137 44 16
0 0 0 0 0 0 0 0 0 1 1 44 7 1 0 35 37 4 3 2 0 78 372 759 662 1103 1656 2020 2059 1918 1791 1545 1394 1295 1107 1093 1018 973 908 830 703 521 421 407 329 277 156 41 24
0 0 0 0 0 0 0 0 0 0 0 0 1 11 5 4 2 2 3 4 4 2 5 56 340 698 976 1454 1584 1574 1584 1361 1075 914 829 749 812 760 682 683 605 427 384 347 257 212 142 71 22
0 0 0 0 0 0 0 0 0 0 0 0 6 8 7 2 3 2 0 4 4 4 3 5 0 17 11 161 592 749 834 727 541 533 485 552 620 611 589 545 529 318 264 177 177 150 102 74 23
0 0 0 0 0 0 0 0 0 0 0 1 6 7 5 2 2 4 0 7 4 5 6 6 2 5 2 4 0 22 195 139 134 361 405 306 389 370 349 202 265 206 112 91 132 53 18 8 9

GFSSGP_con_mlcape_135.txt.gz
CAPE
0 0 0 0 0 0 0 0 0 0 0 0 0 0 0 0 0 0 33 117 341 651 937 856 792 757 633 542 482 441 520 802 1056 1169 1142 984 926 1045 1028 1098 1205 1386 1373 1250 983 876 847 1095 792
0 0 0 0 0 0 0 0 0 0 0 0 0 0 0 0 0 14 251 225 528 850 979 1083 891 850 793 710 616 608 653 681 886 1072 1098 1057 1189 1107 1127 1126 1228 1274 1229 1225 1071 958 873 893 892
0 0 0 0 0 0 0 0 0 0 0 0 0 0 0 0 0 8 115 286 696 1022 1098 1158 944 892 931 896 814 808 786 678 825 989 1156 1230 1208 1143 1123 1143 1224 1289 1196 1163 1057 1009 846 844 923
0 0 0 0 0 0 0 0 0 0 0 0 0 0 0 0 0 0 88 581 1037 1085 1176 1082 950 966 1006 1023 1029 1013 822 724 784 943 1180 1297 1272 1223 1157 1103 1193 1224 1115 1070 1062 1049 830 914 958
0 0 0 0 0 0 0 0 0 0 0 0 0 0 0 0 0 0 214 697 895 1233 1158 1153 941 971 1012 1101 1091 1095 915 814 863 959 1048 1193 1203 1061 926 942 1038 1076 1044 1116 1098 870 793 878 894
0 0 0 0 0 0 0 0 0 0 0 0 0 0 0 0 0 0 238 408 792 1126 1135 1150 1024 1024 1076 1147 1073 1136 1006 898 939 1001 1070 1108 957 778 616 641 810 713 726 674 744 780 774 817 806
0 0 0 0 0 0 0 0 0 0 0 0 0 0 0 0 0 0 204 305 648 947 989 1137 1333 1278 1184 1147 1173 1201 1067 964 952 1001 1017 889 709 487 392 508 683 641 651 485 623 705 730 736 742
0 0 0 0 0 0 0 0 0 0 0 0 0 0 0 0 0 6 200 279 408 763 849 931 1219 1406 1441 1503 1327 1248 1113 1039 964 953 937 756 512 322 242 334 543 528 479 339 431 627 652 651 638
0 0 0 0 0 0 0 0 0 0 0 0 0 0 0 0 0 0 86 92 105 392 720 924 1092 1059 1075 1354 1642 1349 1211 1147 1031 966 874 704 797 507 233 185 210 351 244 152 200 441 546 514 486
0 0 0 0 0 0 0 0 0 0 0 0 0 0 0 0 0 0 3 65 61 59 351 791 908 829 877 1076 1343 1595 1553 1543 1468 1231 1075 955 762 567 351 59 3 137 220 181 210 289 236 404 633
0 0 0 0 0 0 0 0 0 0 0 0 0 0 0 0 0 0 0 221 164 200 245 399 571 691 800 897 1171 1354 1417 1435 1361 1317 1083 817 593 339 86 54 46 186 264 320 193 181 409 547 572
0 0 0 0 0 0 0 0 0 0 0 0 0 0 0 0 0 0 0 0 687 281 274 330 441 494 801 818 978 1239 1272 1215 1140 1037 1023 707 474 348 66 0 20 81 392 276 427 391 436 442 610
0 0 0 0 0 0 0 0 0 0 0 0 0 0 0 0 0 0 0 0 0 422 710 265 440 523 627 936 799 1083 1188 1207 1063 1037 828 782 492 223 54 0 3 65 217 145 168 192 494 420 415
0 0 0 0 0 0 0 0 0 0 0 0 0 0 0 0 0 0 0 0 0 0 547 1142 521 446 516 765 982 1101 1379 1517 1076 988 761 688 501 99 37 0 0 29 171 228 145 128 128 379 374
0 0 0 0 0 0 0 0 0 0 0 0 0 0 0 0 0 0 0 0 0 0 0 544 1332 948 570 393 768 1088 1144 1106 935 923 763 616 479 101 10 9 0 5 67 217 17 14 33 172 113
0 0 0 0 0 0 0 0 0 0 0 0 0 0 0 0 0 0 0 0 0 0 0 0 409 1218 1106 792 836 935 974 993 879 818 743 577 514 196 12 10 0 23 17 0 0 0 3 44 66
0 0 0 0 0 0 0 0 0 0 0 0 0 0 0 0 0 0 0 0 0 0 0 0 0 738 1228 1314 1135 1157 1110 888 739 713 789 562 525 268 52 77 14 0 0 0 0 0 1 2 24
0 0 0 0 0 0 0 0 0 0 0 0 0 0 0 0 0 0 0 0 0 0 0 0 0 30 1226 1466 1300 1189 1101 1004 772 737 633 564 501 401 144 169 60 5 0 0 0 23 30 54 13
0 0 0 0 0 0 0 0 0 0 0 0 0 0 0 0 0 0 0 0 0 0 0 0 0 0 1065 1299 1189 1034 949 939 854 771 752 631 517 415 323 179 77 33 15 0 41 55 34 1 3
0 0 0 0 0 0 0 0 0 0 0 0 0 0 0 0 0 0 0 0 0 0 0 0 0 0 801 1132 1245 1244 1226 1108 958 880 774 605 558 470 413 368 145 95 54 31 32 13 27 3 1
0 0 0 0 0 0 0 0 0 0 0 0 0 0 0 0 0 0 0 0 0 0 0 0 0 0 265 1315 1585 1600 1468 1359 1125 821 679 752 698 578 501 456 291 169 150 43 35 101 77 19 1
0 0 0 0 0 0 0 0 0 0 0 0 0 0 0 0 0 0 0 4 0 0 0 0 0 0 23 1543 1738 1554 1632 1517 1343 1137 1015 896 742 700 581 506 421 281 210 130 55 110 144 54 1
0 0 0 0 0 0 0 0 0 0 0 0 0 0 0 0 6 0 82 12 0 0 0 0 0 0 0 1525 1817 1873 1929 1867 1856 1522 1271 1000 745 688 609 571 458 411 285 222 92 68 152 80 61
0 0 0 0 0 0 0 0 0 0 0 0 0 0 4 22 10 32 10 210 45 0 0 0 0 0 0 1070 1885 2024 1936 2067 2030 1711 1449 1144 930 783 599 598 498 546 477 381 223 178 174 157 124
0 0 0 0 0 0 0 0 0 0 0 0 0 0 5 9 12 23 4 3 55 287 0 0 0 0 0 400 1471 2140 2145 2149 2052 1821 1604 1256 1202 879 763 683 602 749 770 558 301 181 181 290 244
0 0 0 0 0 0 0 0 0 0 0 0 0 5 3 6 4 8 3 6 4 7 253 0 0 0 0 378 1332 1951 2250 2117 2031 1853 1734 1465 1263 1131 1029 733 806 841 770 538 363 262 205 240 244
0 0 0 0 0 0 0 0 0 0 0 0 0 4 3 3 5 4 3 3 5 5 3 397 315 29 8 741 1653 1935 2215 2065 2022 1901 1884 1515 1270 1151 1044 926 891 806 670 616 494 293 215 87 58
0 0 0 0 0 0 0 0 0 0 0 0 1 4 4 2 4 2 4 3 3 4 5 4 36 465 876 1623 2257 2339 2242 1979 1884 1805 1762 1495 1257 1000 1004 802 693 732 668 625 397 274 215 146 99
0 0 0 0 0 0 0 0 0 0 0 3 1 1 3 3 3 2 2 1 2 2 4 4 5 7 68 199 1104 1951 1706 1668 1643 1620 1563 1444 1047 770 670 554 577 588 569 463 374 290 185 193 123
0 0 0 0 0 1 0 0 0 0 0 2 3 1 1 5 3 1 3 0 2 3 3 4 5 9 8 6 3 109 341 566 854 799 611 667 670 404 360 329 396 516 509 427 337 239 163 174 113